Regional Weather Roundup
Issued by NWS

Home | Current Version | Previous Version | Text Only | Print | Product List | Glossary Off
Versions: 1 2 3 4 5 6 7 8 9 10 11 12 13 14 15 16 17 18 19 20 21 22 23 24 25 26 27 28 29 30 31 32 33 34 35 36 37 38 39 40 41 42 43 44 45 46 47 48 49 50

000
ASUS43 KBIS 301102
RWRND

NORTH DAKOTA REGIONAL WEATHER ROUNDUP
NATIONAL WEATHER SERVICE BISMARCK ND
600 AM CDT SAT APR 30 2016

NOTE: "FAIR" INDICATES FEW OR NO CLOUDS BELOW 12,000 FEET WITH NO
SIGNIFICANT WEATHER AND/OR OBSTRUCTIONS TO VISIBILITY.


NDZ001>003-009>011-017-301200-
NORTHWEST NORTH DAKOTA

CITY           SKY/WX    TMP DP  RH WIND       PRES   REMARKS
WILLISTON      CLEAR     38  29  70 VRB3      30.22R
MINOT          CLEAR     39  26  59 CALM      30.24R
MINOT AFB      CLEAR     34  26  73 E7        30.23R
$$

NDZ018>021-031>035-040>046-301200-
SOUTHWEST NORTH DAKOTA

CITY           SKY/WX    TMP DP  RH WIND       PRES   REMARKS
BISMARCK       CLEAR     39  32  76 NE10      30.16R
DICKINSON      PTCLDY    34  27  75 E9        30.13R
GARRISON         N/A     38  30  73 NE6       30.20R
HETTINGER ARPT CLOUDY    40  32  73 NE10      30.11R
$$

NDZ004>008-012>016-024-026-027-054-301200-
NORTHEAST NORTH DAKOTA

CITY           SKY/WX    TMP DP  RH WIND       PRES   REMARKS
GRAND FORKS    CLEAR     37  30  75 E9        30.24R
GRND FRKS AFB  CLEAR     31  28  86 N6        30.24R
DEVILS LAKE    CLEAR     37  31  78 NE8       30.23R
$$

NDZ022-023-025-028>030-036>039-047>053-301200-
SOUTHEAST NORTH DAKOTA

CITY           SKY/WX    TMP DP  RH WIND       PRES   REMARKS
FARGO          CLEAR     41  30  65 E9        30.19R
JAMESTOWN      CLEAR     39  32  76 E10       30.16R
$$





USA.gov is the U.S. government's official web portal to all federal, state and local government web resources and services.